Index of /20260501/WXO-DD/model_caps/3km/12/024
Name Last modified Size Description
Parent Directory -
20260501T12Z_MSC_CAPS_AbsoluteVorticity_IsbL-0250_RLatLon0.03_PT024H.grib2 2026-05-01 18:18 1.2M
20260501T12Z_MSC_CAPS_AbsoluteVorticity_IsbL-0500_RLatLon0.03_PT024H.grib2 2026-05-01 18:18 1.1M
20260501T12Z_MSC_CAPS_AbsoluteVorticity_IsbL-0700_RLatLon0.03_PT024H.grib2 2026-05-01 18:18 1.0M
20260501T12Z_MSC_CAPS_AbsoluteVorticity_IsbL-0850_RLatLon0.03_PT024H.grib2 2026-05-01 18:18 1.2M
20260501T12Z_MSC_CAPS_AbsoluteVorticity_IsbL-1000_RLatLon0.03_PT024H.grib2 2026-05-01 18:18 1.4M
20260501T12Z_MSC_CAPS_AirDensity_AGL-120m_RLatLon0.03_PT024H.grib2 2026-05-01 18:18 1.4M
20260501T12Z_MSC_CAPS_AirDensity_AGL-40m_RLatLon0.03_PT024H.grib2 2026-05-01 18:18 1.4M
20260501T12Z_MSC_CAPS_AirDensity_AGL-80m_RLatLon0.03_PT024H.grib2 2026-05-01 18:18 1.4M
20260501T12Z_MSC_CAPS_AirTemp_AGL-120m_RLatLon0.03_PT024H.grib2 2026-05-01 18:18 1.4M
20260501T12Z_MSC_CAPS_AirTemp_AGL-2m_RLatLon0.03_PT024H.grib2 2026-05-01 18:18 1.7M
20260501T12Z_MSC_CAPS_AirTemp_AGL-40m_RLatLon0.03_PT024H.grib2 2026-05-01 18:18 1.5M
20260501T12Z_MSC_CAPS_AirTemp_AGL-80m_RLatLon0.03_PT024H.grib2 2026-05-01 18:18 1.4M
20260501T12Z_MSC_CAPS_AirTemp_IsbL-0050_RLatLon0.03_PT024H.grib2 2026-05-01 18:18 692K
20260501T12Z_MSC_CAPS_AirTemp_IsbL-0100_RLatLon0.03_PT024H.grib2 2026-05-01 18:18 968K
20260501T12Z_MSC_CAPS_AirTemp_IsbL-0150_RLatLon0.03_PT024H.grib2 2026-05-01 18:18 756K
20260501T12Z_MSC_CAPS_AirTemp_IsbL-0175_RLatLon0.03_PT024H.grib2 2026-05-01 18:18 777K
20260501T12Z_MSC_CAPS_AirTemp_IsbL-0200_RLatLon0.03_PT024H.grib2 2026-05-01 18:18 794K
20260501T12Z_MSC_CAPS_AirTemp_IsbL-0225_RLatLon0.03_PT024H.grib2 2026-05-01 18:18 794K
20260501T12Z_MSC_CAPS_AirTemp_IsbL-0250_RLatLon0.03_PT024H.grib2 2026-05-01 18:18 1.0M
20260501T12Z_MSC_CAPS_AirTemp_IsbL-0275_RLatLon0.03_PT024H.grib2 2026-05-01 18:18 1.0M
20260501T12Z_MSC_CAPS_AirTemp_IsbL-0300_RLatLon0.03_PT024H.grib2 2026-05-01 18:18 1.0M
20260501T12Z_MSC_CAPS_AirTemp_IsbL-0350_RLatLon0.03_PT024H.grib2 2026-05-01 18:18 750K
20260501T12Z_MSC_CAPS_AirTemp_IsbL-0400_RLatLon0.03_PT024H.grib2 2026-05-01 18:18 756K
20260501T12Z_MSC_CAPS_AirTemp_IsbL-0450_RLatLon0.03_PT024H.grib2 2026-05-01 18:18 770K
20260501T12Z_MSC_CAPS_AirTemp_IsbL-0500_RLatLon0.03_PT024H.grib2 2026-05-01 18:18 784K
20260501T12Z_MSC_CAPS_AirTemp_IsbL-0550_RLatLon0.03_PT024H.grib2 2026-05-01 18:18 798K
20260501T12Z_MSC_CAPS_AirTemp_IsbL-0600_RLatLon0.03_PT024H.grib2 2026-05-01 18:18 966K
20260501T12Z_MSC_CAPS_AirTemp_IsbL-0650_RLatLon0.03_PT024H.grib2 2026-05-01 18:18 1.0M
20260501T12Z_MSC_CAPS_AirTemp_IsbL-0700_RLatLon0.03_PT024H.grib2 2026-05-01 18:18 1.0M
20260501T12Z_MSC_CAPS_AirTemp_IsbL-0750_RLatLon0.03_PT024H.grib2 2026-05-01 18:18 1.0M
20260501T12Z_MSC_CAPS_AirTemp_IsbL-0800_RLatLon0.03_PT024H.grib2 2026-05-01 18:18 1.0M
20260501T12Z_MSC_CAPS_AirTemp_IsbL-0850_RLatLon0.03_PT024H.grib2 2026-05-01 18:18 1.1M
20260501T12Z_MSC_CAPS_AirTemp_IsbL-0875_RLatLon0.03_PT024H.grib2 2026-05-01 18:18 1.1M
20260501T12Z_MSC_CAPS_AirTemp_IsbL-0900_RLatLon0.03_PT024H.grib2 2026-05-01 18:18 1.1M
20260501T12Z_MSC_CAPS_AirTemp_IsbL-0925_RLatLon0.03_PT024H.grib2 2026-05-01 18:18 1.1M
20260501T12Z_MSC_CAPS_AirTemp_IsbL-0950_RLatLon0.03_PT024H.grib2 2026-05-01 18:18 1.1M
20260501T12Z_MSC_CAPS_AirTemp_IsbL-0970_RLatLon0.03_PT024H.grib2 2026-05-01 18:18 1.1M
20260501T12Z_MSC_CAPS_AirTemp_IsbL-0985_RLatLon0.03_PT024H.grib2 2026-05-01 18:18 1.0M
20260501T12Z_MSC_CAPS_AirTemp_IsbL-1000_RLatLon0.03_PT024H.grib2 2026-05-01 18:18 1.0M
20260501T12Z_MSC_CAPS_AirTemp_IsbL-1015_RLatLon0.03_PT024H.grib2 2026-05-01 18:18 1.1M
20260501T12Z_MSC_CAPS_Albedo_Sfc_RLatLon0.03_PT024H.grib2 2026-05-01 18:18 2.7M
20260501T12Z_MSC_CAPS_CAPE_Sfc_RLatLon0.03_PT024H.grib2 2026-05-01 18:18 141K
20260501T12Z_MSC_CAPS_CloudWater_EAtm_RLatLon0.03_PT024H.grib2 2026-05-01 18:18 1.4M
20260501T12Z_MSC_CAPS_ConvectivePrecip-Accum_Sfc_RLatLon0.03_PT024H.grib2 2026-05-01 18:18 4.0M
20260501T12Z_MSC_CAPS_DewPointDepression_AGL-120m_RLatLon0.03_PT024H.grib2 2026-05-01 18:18 2.0M
20260501T12Z_MSC_CAPS_DewPointDepression_AGL-2m_RLatLon0.03_PT024H.grib2 2026-05-01 18:18 2.1M
20260501T12Z_MSC_CAPS_DewPointDepression_AGL-40m_RLatLon0.03_PT024H.grib2 2026-05-01 18:18 2.0M
20260501T12Z_MSC_CAPS_DewPointDepression_AGL-80m_RLatLon0.03_PT024H.grib2 2026-05-01 18:18 2.0M
20260501T12Z_MSC_CAPS_DewPointDepression_IsbL-0050_RLatLon0.03_PT024H.grib2 2026-05-01 18:18 14K
20260501T12Z_MSC_CAPS_DewPointDepression_IsbL-0100_RLatLon0.03_PT024H.grib2 2026-05-01 18:18 117K
20260501T12Z_MSC_CAPS_DewPointDepression_IsbL-0150_RLatLon0.03_PT024H.grib2 2026-05-01 18:18 118K
20260501T12Z_MSC_CAPS_DewPointDepression_IsbL-0175_RLatLon0.03_PT024H.grib2 2026-05-01 18:18 263K
20260501T12Z_MSC_CAPS_DewPointDepression_IsbL-0200_RLatLon0.03_PT024H.grib2 2026-05-01 18:18 414K
20260501T12Z_MSC_CAPS_DewPointDepression_IsbL-0225_RLatLon0.03_PT024H.grib2 2026-05-01 18:18 641K
20260501T12Z_MSC_CAPS_DewPointDepression_IsbL-0250_RLatLon0.03_PT024H.grib2 2026-05-01 18:18 862K
20260501T12Z_MSC_CAPS_DewPointDepression_IsbL-0275_RLatLon0.03_PT024H.grib2 2026-05-01 18:18 1.0M
20260501T12Z_MSC_CAPS_DewPointDepression_IsbL-0300_RLatLon0.03_PT024H.grib2 2026-05-01 18:18 1.0M
20260501T12Z_MSC_CAPS_DewPointDepression_IsbL-0350_RLatLon0.03_PT024H.grib2 2026-05-01 18:18 1.1M
20260501T12Z_MSC_CAPS_DewPointDepression_IsbL-0400_RLatLon0.03_PT024H.grib2 2026-05-01 18:18 1.1M
20260501T12Z_MSC_CAPS_DewPointDepression_IsbL-0450_RLatLon0.03_PT024H.grib2 2026-05-01 18:18 1.1M
20260501T12Z_MSC_CAPS_DewPointDepression_IsbL-0500_RLatLon0.03_PT024H.grib2 2026-05-01 18:18 1.2M
20260501T12Z_MSC_CAPS_DewPointDepression_IsbL-0550_RLatLon0.03_PT024H.grib2 2026-05-01 18:18 1.2M
20260501T12Z_MSC_CAPS_DewPointDepression_IsbL-0600_RLatLon0.03_PT024H.grib2 2026-05-01 18:18 1.2M
20260501T12Z_MSC_CAPS_DewPointDepression_IsbL-0650_RLatLon0.03_PT024H.grib2 2026-05-01 18:18 1.2M
20260501T12Z_MSC_CAPS_DewPointDepression_IsbL-0700_RLatLon0.03_PT024H.grib2 2026-05-01 18:18 1.3M
20260501T12Z_MSC_CAPS_DewPointDepression_IsbL-0750_RLatLon0.03_PT024H.grib2 2026-05-01 18:18 1.3M
20260501T12Z_MSC_CAPS_DewPointDepression_IsbL-0800_RLatLon0.03_PT024H.grib2 2026-05-01 18:18 1.3M
20260501T12Z_MSC_CAPS_DewPointDepression_IsbL-0850_RLatLon0.03_PT024H.grib2 2026-05-01 18:18 1.3M
20260501T12Z_MSC_CAPS_DewPointDepression_IsbL-0875_RLatLon0.03_PT024H.grib2 2026-05-01 18:18 1.3M
20260501T12Z_MSC_CAPS_DewPointDepression_IsbL-0900_RLatLon0.03_PT024H.grib2 2026-05-01 18:18 1.3M
20260501T12Z_MSC_CAPS_DewPointDepression_IsbL-0925_RLatLon0.03_PT024H.grib2 2026-05-01 18:18 1.3M
20260501T12Z_MSC_CAPS_DewPointDepression_IsbL-0950_RLatLon0.03_PT024H.grib2 2026-05-01 18:18 1.3M
20260501T12Z_MSC_CAPS_DewPointDepression_IsbL-0970_RLatLon0.03_PT024H.grib2 2026-05-01 18:18 1.3M
20260501T12Z_MSC_CAPS_DewPointDepression_IsbL-0985_RLatLon0.03_PT024H.grib2 2026-05-01 18:18 1.3M
20260501T12Z_MSC_CAPS_DewPointDepression_IsbL-1000_RLatLon0.03_PT024H.grib2 2026-05-01 18:18 1.3M
20260501T12Z_MSC_CAPS_DewPointDepression_IsbL-1015_RLatLon0.03_PT024H.grib2 2026-05-01 18:18 1.3M
20260501T12Z_MSC_CAPS_DewPoint_AGL-120m_RLatLon0.03_PT024H.grib2 2026-05-01 18:18 3.6M
20260501T12Z_MSC_CAPS_DewPoint_AGL-2m_RLatLon0.03_PT024H.grib2 2026-05-01 18:18 2.1M
20260501T12Z_MSC_CAPS_DewPoint_AGL-40m_RLatLon0.03_PT024H.grib2 2026-05-01 18:18 3.7M
20260501T12Z_MSC_CAPS_DewPoint_AGL-80m_RLatLon0.03_PT024H.grib2 2026-05-01 18:18 3.6M
20260501T12Z_MSC_CAPS_DownwardLongwaveRadiationFlux-Accum_Sfc_RLatLon0.03_PT024H.grib2 2026-05-01 18:18 2.3M
20260501T12Z_MSC_CAPS_DownwardShortwaveRadiationFlux-Accum_NTAtm_RLatLon0.03_PT024H.grib2 2026-05-01 18:18 553K
20260501T12Z_MSC_CAPS_DownwardShortwaveRadiationFlux-Accum_Sfc_RLatLon0.03_PT024H.grib2 2026-05-01 18:18 3.1M
20260501T12Z_MSC_CAPS_FreezingRain-Accum_Sfc_RLatLon0.03_PT024H.grib2 2026-05-01 18:18 659K
20260501T12Z_MSC_CAPS_GeopotentialHeight_IsbL-0050_RLatLon0.03_PT024H.grib2 2026-05-01 18:18 639K
20260501T12Z_MSC_CAPS_GeopotentialHeight_IsbL-0100_RLatLon0.03_PT024H.grib2 2026-05-01 18:18 760K
20260501T12Z_MSC_CAPS_GeopotentialHeight_IsbL-0150_RLatLon0.03_PT024H.grib2 2026-05-01 18:18 729K
20260501T12Z_MSC_CAPS_GeopotentialHeight_IsbL-0175_RLatLon0.03_PT024H.grib2 2026-05-01 18:18 742K
20260501T12Z_MSC_CAPS_GeopotentialHeight_IsbL-0200_RLatLon0.03_PT024H.grib2 2026-05-01 18:18 753K
20260501T12Z_MSC_CAPS_GeopotentialHeight_IsbL-0225_RLatLon0.03_PT024H.grib2 2026-05-01 18:18 766K
20260501T12Z_MSC_CAPS_GeopotentialHeight_IsbL-0250_RLatLon0.03_PT024H.grib2 2026-05-01 18:18 774K
20260501T12Z_MSC_CAPS_GeopotentialHeight_IsbL-0275_RLatLon0.03_PT024H.grib2 2026-05-01 18:18 781K
20260501T12Z_MSC_CAPS_GeopotentialHeight_IsbL-0300_RLatLon0.03_PT024H.grib2 2026-05-01 18:18 782K
20260501T12Z_MSC_CAPS_GeopotentialHeight_IsbL-0350_RLatLon0.03_PT024H.grib2 2026-05-01 18:18 781K
20260501T12Z_MSC_CAPS_GeopotentialHeight_IsbL-0400_RLatLon0.03_PT024H.grib2 2026-05-01 18:18 777K
20260501T12Z_MSC_CAPS_GeopotentialHeight_IsbL-0450_RLatLon0.03_PT024H.grib2 2026-05-01 18:18 770K
20260501T12Z_MSC_CAPS_GeopotentialHeight_IsbL-0500_RLatLon0.03_PT024H.grib2 2026-05-01 18:18 760K
20260501T12Z_MSC_CAPS_GeopotentialHeight_IsbL-0550_RLatLon0.03_PT024H.grib2 2026-05-01 18:18 754K
20260501T12Z_MSC_CAPS_GeopotentialHeight_IsbL-0600_RLatLon0.03_PT024H.grib2 2026-05-01 18:18 638K
20260501T12Z_MSC_CAPS_GeopotentialHeight_IsbL-0650_RLatLon0.03_PT024H.grib2 2026-05-01 18:18 636K
20260501T12Z_MSC_CAPS_GeopotentialHeight_IsbL-0700_RLatLon0.03_PT024H.grib2 2026-05-01 18:18 636K
20260501T12Z_MSC_CAPS_GeopotentialHeight_IsbL-0750_RLatLon0.03_PT024H.grib2 2026-05-01 18:18 818K
20260501T12Z_MSC_CAPS_GeopotentialHeight_IsbL-0800_RLatLon0.03_PT024H.grib2 2026-05-01 18:18 819K
20260501T12Z_MSC_CAPS_GeopotentialHeight_IsbL-0850_RLatLon0.03_PT024H.grib2 2026-05-01 18:18 827K
20260501T12Z_MSC_CAPS_GeopotentialHeight_IsbL-0875_RLatLon0.03_PT024H.grib2 2026-05-01 18:18 817K
20260501T12Z_MSC_CAPS_GeopotentialHeight_IsbL-0900_RLatLon0.03_PT024H.grib2 2026-05-01 18:18 919K
20260501T12Z_MSC_CAPS_GeopotentialHeight_IsbL-0925_RLatLon0.03_PT024H.grib2 2026-05-01 18:18 928K
20260501T12Z_MSC_CAPS_GeopotentialHeight_IsbL-0950_RLatLon0.03_PT024H.grib2 2026-05-01 18:18 937K
20260501T12Z_MSC_CAPS_GeopotentialHeight_IsbL-0970_RLatLon0.03_PT024H.grib2 2026-05-01 18:18 946K
20260501T12Z_MSC_CAPS_GeopotentialHeight_IsbL-0985_RLatLon0.03_PT024H.grib2 2026-05-01 18:18 954K
20260501T12Z_MSC_CAPS_GeopotentialHeight_IsbL-1000_RLatLon0.03_PT024H.grib2 2026-05-01 18:18 963K
20260501T12Z_MSC_CAPS_GeopotentialHeight_IsbL-1015_RLatLon0.03_PT024H.grib2 2026-05-01 18:18 1.0M
20260501T12Z_MSC_CAPS_GeopotentialHeight_Sfc_RLatLon0.03_PT024H.grib2 2026-05-01 18:18 1.0M
20260501T12Z_MSC_CAPS_IcePellets-Accum_Sfc_RLatLon0.03_PT024H.grib2 2026-05-01 18:18 40K
20260501T12Z_MSC_CAPS_LatentHeatNetFlux_Sfc_RLatLon0.03_PT024H.grib2 2026-05-01 18:18 1.8M
20260501T12Z_MSC_CAPS_LiftedIndex-MU-VT_IsbL-0500_RLatLon0.03_PT024H.grib2 2026-05-01 18:18 3.3M
20260501T12Z_MSC_CAPS_MixedLayerThickness_Sfc_RLatLon0.03_PT024H.nc 2026-05-01 18:14 17M
20260501T12Z_MSC_CAPS_NetLongwaveRadiationFlux-Accum_Sfc_RLatLon0.03_PT024H.grib2 2026-05-01 18:18 3.0M
20260501T12Z_MSC_CAPS_NetShortwaveRadiationFlux-Accum_Sfc_RLatLon0.03_PT024H.grib2 2026-05-01 18:18 3.0M
20260501T12Z_MSC_CAPS_PlanetaryBoundaryLayerHeight_Sfc_RLatLon0.03_PT024H.grib2 2026-05-01 18:18 2.8M
20260501T12Z_MSC_CAPS_Precip-Accum_Sfc_RLatLon0.03_PT024H.grib2 2026-05-01 18:18 4.3M
20260501T12Z_MSC_CAPS_PrecipRate_Sfc_RLatLon0.03_PT024H.grib2 2026-05-01 18:18 572K
20260501T12Z_MSC_CAPS_PrecipType-Instant_Sfc_RLatLon0.03_PT024H.grib2 2026-05-01 18:18 1.9M
20260501T12Z_MSC_CAPS_Pressure_MSL_RLatLon0.03_PT024H.grib2 2026-05-01 18:18 770K
20260501T12Z_MSC_CAPS_Pressure_Sfc_RLatLon0.03_PT024H.grib2 2026-05-01 18:18 1.2M
20260501T12Z_MSC_CAPS_RadiativeTemp_Sfc_RLatLon0.03_PT024H.grib2 2026-05-01 18:18 2.1M
20260501T12Z_MSC_CAPS_Rain-Accum_Sfc_RLatLon0.03_PT024H.grib2 2026-05-01 18:18 1.8M
20260501T12Z_MSC_CAPS_RelativeHumidity_AGL-120m_RLatLon0.03_PT024H.grib2 2026-05-01 18:18 2.8M
20260501T12Z_MSC_CAPS_RelativeHumidity_AGL-2m_RLatLon0.03_PT024H.grib2 2026-05-01 18:18 2.9M
20260501T12Z_MSC_CAPS_RelativeHumidity_AGL-40m_RLatLon0.03_PT024H.grib2 2026-05-01 18:18 2.8M
20260501T12Z_MSC_CAPS_RelativeHumidity_AGL-80m_RLatLon0.03_PT024H.grib2 2026-05-01 18:18 2.8M
20260501T12Z_MSC_CAPS_RelativeHumidity_IsbL-0050_RLatLon0.03_PT024H.grib2 2026-05-01 18:18 733K
20260501T12Z_MSC_CAPS_RelativeHumidity_IsbL-0100_RLatLon0.03_PT024H.grib2 2026-05-01 18:18 877K
20260501T12Z_MSC_CAPS_RelativeHumidity_IsbL-0150_RLatLon0.03_PT024H.grib2 2026-05-01 18:18 499K
20260501T12Z_MSC_CAPS_RelativeHumidity_IsbL-0175_RLatLon0.03_PT024H.grib2 2026-05-01 18:18 493K
20260501T12Z_MSC_CAPS_RelativeHumidity_IsbL-0200_RLatLon0.03_PT024H.grib2 2026-05-01 18:18 695K
20260501T12Z_MSC_CAPS_RelativeHumidity_IsbL-0225_RLatLon0.03_PT024H.grib2 2026-05-01 18:18 897K
20260501T12Z_MSC_CAPS_RelativeHumidity_IsbL-0250_RLatLon0.03_PT024H.grib2 2026-05-01 18:18 1.1M
20260501T12Z_MSC_CAPS_RelativeHumidity_IsbL-0275_RLatLon0.03_PT024H.grib2 2026-05-01 18:18 1.4M
20260501T12Z_MSC_CAPS_RelativeHumidity_IsbL-0300_RLatLon0.03_PT024H.grib2 2026-05-01 18:18 1.7M
20260501T12Z_MSC_CAPS_RelativeHumidity_IsbL-0350_RLatLon0.03_PT024H.grib2 2026-05-01 18:18 1.9M
20260501T12Z_MSC_CAPS_RelativeHumidity_IsbL-0400_RLatLon0.03_PT024H.grib2 2026-05-01 18:18 1.9M
20260501T12Z_MSC_CAPS_RelativeHumidity_IsbL-0450_RLatLon0.03_PT024H.grib2 2026-05-01 18:18 2.0M
20260501T12Z_MSC_CAPS_RelativeHumidity_IsbL-0500_RLatLon0.03_PT024H.grib2 2026-05-01 18:18 1.9M
20260501T12Z_MSC_CAPS_RelativeHumidity_IsbL-0550_RLatLon0.03_PT024H.grib2 2026-05-01 18:18 2.1M
20260501T12Z_MSC_CAPS_RelativeHumidity_IsbL-0600_RLatLon0.03_PT024H.grib2 2026-05-01 18:18 2.1M
20260501T12Z_MSC_CAPS_RelativeHumidity_IsbL-0650_RLatLon0.03_PT024H.grib2 2026-05-01 18:18 2.3M
20260501T12Z_MSC_CAPS_RelativeHumidity_IsbL-0700_RLatLon0.03_PT024H.grib2 2026-05-01 18:18 2.3M
20260501T12Z_MSC_CAPS_RelativeHumidity_IsbL-0750_RLatLon0.03_PT024H.grib2 2026-05-01 18:18 2.3M
20260501T12Z_MSC_CAPS_RelativeHumidity_IsbL-0800_RLatLon0.03_PT024H.grib2 2026-05-01 18:18 2.4M
20260501T12Z_MSC_CAPS_RelativeHumidity_IsbL-0850_RLatLon0.03_PT024H.grib2 2026-05-01 18:18 2.4M
20260501T12Z_MSC_CAPS_RelativeHumidity_IsbL-0875_RLatLon0.03_PT024H.grib2 2026-05-01 18:18 2.5M
20260501T12Z_MSC_CAPS_RelativeHumidity_IsbL-0900_RLatLon0.03_PT024H.grib2 2026-05-01 18:18 2.5M
20260501T12Z_MSC_CAPS_RelativeHumidity_IsbL-0925_RLatLon0.03_PT024H.grib2 2026-05-01 18:18 2.6M
20260501T12Z_MSC_CAPS_RelativeHumidity_IsbL-0950_RLatLon0.03_PT024H.grib2 2026-05-01 18:18 2.6M
20260501T12Z_MSC_CAPS_RelativeHumidity_IsbL-0970_RLatLon0.03_PT024H.grib2 2026-05-01 18:18 2.7M
20260501T12Z_MSC_CAPS_RelativeHumidity_IsbL-0985_RLatLon0.03_PT024H.grib2 2026-05-01 18:18 2.8M
20260501T12Z_MSC_CAPS_RelativeHumidity_IsbL-1000_RLatLon0.03_PT024H.grib2 2026-05-01 18:18 2.9M
20260501T12Z_MSC_CAPS_RelativeHumidity_IsbL-1015_RLatLon0.03_PT024H.grib2 2026-05-01 18:18 2.9M
20260501T12Z_MSC_CAPS_Runoff-Accum_Sfc_RLatLon0.03_PT024H.grib2 2026-05-01 18:18 393K
20260501T12Z_MSC_CAPS_SeaIceAreaFraction_Sfc_RLatLon0.03_PT024H.nc 2026-05-01 18:14 15M
20260501T12Z_MSC_CAPS_SeaIceCompressiveStrength_Sfc_RLatLon0.03_PT024H.nc 2026-05-01 18:14 15M
20260501T12Z_MSC_CAPS_SeaIceDivergence_Sfc_RLatLon0.03_PT024H.nc 2026-05-01 18:14 15M
20260501T12Z_MSC_CAPS_SeaIceInternalPressure_Sfc_RLatLon0.03_PT024H.nc 2026-05-01 18:14 15M
20260501T12Z_MSC_CAPS_SeaIceShear_Sfc_RLatLon0.03_PT024H.nc 2026-05-01 18:14 14M
20260501T12Z_MSC_CAPS_SeaIceSnowTemp_Sfc_RLatLon0.03_PT024H.nc 2026-05-01 18:14 15M
20260501T12Z_MSC_CAPS_SeaIceSnowVolume_Sfc_RLatLon0.03_PT024H.nc 2026-05-01 18:14 15M
20260501T12Z_MSC_CAPS_SeaIceVelocityX_Sfc_RLatLon0.03_PT024H.nc 2026-05-01 18:14 15M
20260501T12Z_MSC_CAPS_SeaIceVelocityY_Sfc_RLatLon0.03_PT024H.nc 2026-05-01 18:14 15M
20260501T12Z_MSC_CAPS_SeaIceVolume_Sfc_RLatLon0.03_PT024H.nc 2026-05-01 18:14 15M
20260501T12Z_MSC_CAPS_SeaSurfaceHeight_Sfc_RLatLon0.03_PT024H.nc 2026-05-01 18:14 16M
20260501T12Z_MSC_CAPS_SeaWaterSalinity_DBS-0.5m_RLatLon0.03_PT024H.nc 2026-05-01 18:14 16M
20260501T12Z_MSC_CAPS_SeaWaterSalinity_DBS-all_RLatLon0.03_PT024H.nc 2026-05-01 18:14 107M
20260501T12Z_MSC_CAPS_SeaWaterTemp_DBS-0.5m_RLatLon0.03_PT024H.nc 2026-05-01 18:14 14M
20260501T12Z_MSC_CAPS_SeaWaterTemp_DBS-all_RLatLon0.03_PT024H.nc 2026-05-01 18:14 87M
20260501T12Z_MSC_CAPS_SeaWaterVelocityX_DBS-0.5m_RLatLon0.03_PT024H.nc 2026-05-01 18:14 17M
20260501T12Z_MSC_CAPS_SeaWaterVelocityX_DBS-all_RLatLon0.03_PT024H.nc 2026-05-01 18:14 198M
20260501T12Z_MSC_CAPS_SeaWaterVelocityY_DBS-0.5m_RLatLon0.03_PT024H.nc 2026-05-01 18:14 17M
20260501T12Z_MSC_CAPS_SeaWaterVelocityY_DBS-all_RLatLon0.03_PT024H.nc 2026-05-01 18:14 208M
20260501T12Z_MSC_CAPS_SensibleHeatNetFlux_Sfc_RLatLon0.03_PT024H.grib2 2026-05-01 18:18 2.0M
20260501T12Z_MSC_CAPS_ShowalterIndex_IsbL-0500_RLatLon0.03_PT024H.grib2 2026-05-01 18:18 4.3M
20260501T12Z_MSC_CAPS_Snow-Accum_Sfc_RLatLon0.03_PT024H.grib2 2026-05-01 18:18 3.4M
20260501T12Z_MSC_CAPS_SnowDensity_Sfc_RLatLon0.03_PT024H.grib2 2026-05-01 18:18 1.3M
20260501T12Z_MSC_CAPS_SnowDepthWaterEquivalent_Sfc_RLatLon0.03_PT024H.grib2 2026-05-01 18:18 680K
20260501T12Z_MSC_CAPS_SnowDepth_Sfc_RLatLon0.03_PT024H.grib2 2026-05-01 18:18 1.2M
20260501T12Z_MSC_CAPS_SoilTemp_DBS-0to10cm_RLatLon0.03_PT024H.grib2 2026-05-01 18:18 1.6M
20260501T12Z_MSC_CAPS_SoilTemp_Sfc_RLatLon0.03_PT024H.grib2 2026-05-01 18:18 1.8M
20260501T12Z_MSC_CAPS_SoilVolumetricIceContent_Sfc_RLatLon0.03_PT024H.grib2 2026-05-01 18:18 1.4M
20260501T12Z_MSC_CAPS_SoilVolumetricWaterContent_DBS-0to10cm_RLatLon0.03_PT024H.grib2 2026-05-01 18:18 1.2M
20260501T12Z_MSC_CAPS_SoilVolumetricWaterContent_DBS-0to1cm_RLatLon0.03_PT024H.grib2 2026-05-01 18:18 1.7M
20260501T12Z_MSC_CAPS_SpecificHumidity_AGL-120m_RLatLon0.03_PT024H.grib2 2026-05-01 18:18 1.8M
20260501T12Z_MSC_CAPS_SpecificHumidity_AGL-2m_RLatLon0.03_PT024H.grib2 2026-05-01 18:18 2.1M
20260501T12Z_MSC_CAPS_SpecificHumidity_AGL-40m_RLatLon0.03_PT024H.grib2 2026-05-01 18:18 1.8M
20260501T12Z_MSC_CAPS_SpecificHumidity_AGL-80m_RLatLon0.03_PT024H.grib2 2026-05-01 18:18 1.8M
20260501T12Z_MSC_CAPS_SpecificHumidity_IsbL-0050_RLatLon0.03_PT024H.grib2 2026-05-01 18:18 895K
20260501T12Z_MSC_CAPS_SpecificHumidity_IsbL-0100_RLatLon0.03_PT024H.grib2 2026-05-01 18:18 1.0M
20260501T12Z_MSC_CAPS_SpecificHumidity_IsbL-0150_RLatLon0.03_PT024H.grib2 2026-05-01 18:18 765K
20260501T12Z_MSC_CAPS_SpecificHumidity_IsbL-0175_RLatLon0.03_PT024H.grib2 2026-05-01 18:18 1.0M
20260501T12Z_MSC_CAPS_SpecificHumidity_IsbL-0200_RLatLon0.03_PT024H.grib2 2026-05-01 18:18 1.0M
20260501T12Z_MSC_CAPS_SpecificHumidity_IsbL-0225_RLatLon0.03_PT024H.grib2 2026-05-01 18:18 840K
20260501T12Z_MSC_CAPS_SpecificHumidity_IsbL-0250_RLatLon0.03_PT024H.grib2 2026-05-01 18:18 1.1M
20260501T12Z_MSC_CAPS_SpecificHumidity_IsbL-0275_RLatLon0.03_PT024H.grib2 2026-05-01 18:18 1.1M
20260501T12Z_MSC_CAPS_SpecificHumidity_IsbL-0300_RLatLon0.03_PT024H.grib2 2026-05-01 18:18 1.0M
20260501T12Z_MSC_CAPS_SpecificHumidity_IsbL-0350_RLatLon0.03_PT024H.grib2 2026-05-01 18:18 956K
20260501T12Z_MSC_CAPS_SpecificHumidity_IsbL-0400_RLatLon0.03_PT024H.grib2 2026-05-01 18:18 1.1M
20260501T12Z_MSC_CAPS_SpecificHumidity_IsbL-0450_RLatLon0.03_PT024H.grib2 2026-05-01 18:18 1.1M
20260501T12Z_MSC_CAPS_SpecificHumidity_IsbL-0500_RLatLon0.03_PT024H.grib2 2026-05-01 18:18 1.3M
20260501T12Z_MSC_CAPS_SpecificHumidity_IsbL-0550_RLatLon0.03_PT024H.grib2 2026-05-01 18:18 1.2M
20260501T12Z_MSC_CAPS_SpecificHumidity_IsbL-0600_RLatLon0.03_PT024H.grib2 2026-05-01 18:18 1.4M
20260501T12Z_MSC_CAPS_SpecificHumidity_IsbL-0650_RLatLon0.03_PT024H.grib2 2026-05-01 18:18 1.6M
20260501T12Z_MSC_CAPS_SpecificHumidity_IsbL-0700_RLatLon0.03_PT024H.grib2 2026-05-01 18:18 1.6M
20260501T12Z_MSC_CAPS_SpecificHumidity_IsbL-0750_RLatLon0.03_PT024H.grib2 2026-05-01 18:18 1.4M
20260501T12Z_MSC_CAPS_SpecificHumidity_IsbL-0800_RLatLon0.03_PT024H.grib2 2026-05-01 18:18 1.5M
20260501T12Z_MSC_CAPS_SpecificHumidity_IsbL-0850_RLatLon0.03_PT024H.grib2 2026-05-01 18:18 1.6M
20260501T12Z_MSC_CAPS_SpecificHumidity_IsbL-0875_RLatLon0.03_PT024H.grib2 2026-05-01 18:18 1.7M
20260501T12Z_MSC_CAPS_SpecificHumidity_IsbL-0900_RLatLon0.03_PT024H.grib2 2026-05-01 18:18 1.8M
20260501T12Z_MSC_CAPS_SpecificHumidity_IsbL-0925_RLatLon0.03_PT024H.grib2 2026-05-01 18:18 1.9M
20260501T12Z_MSC_CAPS_SpecificHumidity_IsbL-0950_RLatLon0.03_PT024H.grib2 2026-05-01 18:18 1.9M
20260501T12Z_MSC_CAPS_SpecificHumidity_IsbL-0970_RLatLon0.03_PT024H.grib2 2026-05-01 18:18 2.0M
20260501T12Z_MSC_CAPS_SpecificHumidity_IsbL-0985_RLatLon0.03_PT024H.grib2 2026-05-01 18:18 2.0M
20260501T12Z_MSC_CAPS_SpecificHumidity_IsbL-1000_RLatLon0.03_PT024H.grib2 2026-05-01 18:18 2.1M
20260501T12Z_MSC_CAPS_SpecificHumidity_IsbL-1015_RLatLon0.03_PT024H.grib2 2026-05-01 18:18 2.1M
20260501T12Z_MSC_CAPS_SpecificHumidity_Sfc_RLatLon0.03_PT024H.grib2 2026-05-01 18:18 2.0M
20260501T12Z_MSC_CAPS_StormRelativeHelicity_Sfc_RLatLon0.03_PT024H.grib2 2026-05-01 18:18 2.7M
20260501T12Z_MSC_CAPS_Thickness_IsbL-1000to0500_RLatLon0.03_PT024H.grib2 2026-05-01 18:18 466K
20260501T12Z_MSC_CAPS_TotalCloudCover_Sfc_RLatLon0.03_PT024H.grib2 2026-05-01 18:18 3.5M
20260501T12Z_MSC_CAPS_TurboclineDepth_Sfc_RLatLon0.03_PT024H.nc 2026-05-01 18:14 16M
20260501T12Z_MSC_CAPS_UpwardLongwaveRadiationFlux_NTAtm_RLatLon0.03_PT024H.grib2 2026-05-01 18:18 2.8M
20260501T12Z_MSC_CAPS_UpwardShortwaveRadiationFlux_NTAtm_RLatLon0.03_PT024H.grib2 2026-05-01 18:18 2.0M
20260501T12Z_MSC_CAPS_VerticalVelocity_IsbL-0250_RLatLon0.03_PT024H.grib2 2026-05-01 18:18 1.0M
20260501T12Z_MSC_CAPS_VerticalVelocity_IsbL-0500_RLatLon0.03_PT024H.grib2 2026-05-01 18:18 888K
20260501T12Z_MSC_CAPS_VerticalVelocity_IsbL-0700_RLatLon0.03_PT024H.grib2 2026-05-01 18:18 947K
20260501T12Z_MSC_CAPS_VerticalVelocity_IsbL-0850_RLatLon0.03_PT024H.grib2 2026-05-01 18:18 1.1M
20260501T12Z_MSC_CAPS_VerticalVelocity_IsbL-1000_RLatLon0.03_PT024H.grib2 2026-05-01 18:18 1.4M
20260501T12Z_MSC_CAPS_WindDir_AGL-10m_RLatLon0.03_PT024H.grib2 2026-05-01 18:18 2.3M
20260501T12Z_MSC_CAPS_WindDir_AGL-120m_RLatLon0.03_PT024H.grib2 2026-05-01 18:18 1.2M
20260501T12Z_MSC_CAPS_WindDir_AGL-40m_RLatLon0.03_PT024H.grib2 2026-05-01 18:18 1.3M
20260501T12Z_MSC_CAPS_WindDir_AGL-80m_RLatLon0.03_PT024H.grib2 2026-05-01 18:18 1.2M
20260501T12Z_MSC_CAPS_WindDir_IsbL-0050_RLatLon0.03_PT024H.grib2 2026-05-01 18:18 1.0M
20260501T12Z_MSC_CAPS_WindDir_IsbL-0100_RLatLon0.03_PT024H.grib2 2026-05-01 18:18 1.0M
20260501T12Z_MSC_CAPS_WindDir_IsbL-0150_RLatLon0.03_PT024H.grib2 2026-05-01 18:18 1.0M
20260501T12Z_MSC_CAPS_WindDir_IsbL-0175_RLatLon0.03_PT024H.grib2 2026-05-01 18:18 1.1M
20260501T12Z_MSC_CAPS_WindDir_IsbL-0200_RLatLon0.03_PT024H.grib2 2026-05-01 18:18 1.1M
20260501T12Z_MSC_CAPS_WindDir_IsbL-0225_RLatLon0.03_PT024H.grib2 2026-05-01 18:18 1.1M
20260501T12Z_MSC_CAPS_WindDir_IsbL-0250_RLatLon0.03_PT024H.grib2 2026-05-01 18:18 1.1M
20260501T12Z_MSC_CAPS_WindDir_IsbL-0275_RLatLon0.03_PT024H.grib2 2026-05-01 18:18 1.1M
20260501T12Z_MSC_CAPS_WindDir_IsbL-0300_RLatLon0.03_PT024H.grib2 2026-05-01 18:18 1.1M
20260501T12Z_MSC_CAPS_WindDir_IsbL-0350_RLatLon0.03_PT024H.grib2 2026-05-01 18:18 1.1M
20260501T12Z_MSC_CAPS_WindDir_IsbL-0400_RLatLon0.03_PT024H.grib2 2026-05-01 18:18 1.1M
20260501T12Z_MSC_CAPS_WindDir_IsbL-0450_RLatLon0.03_PT024H.grib2 2026-05-01 18:18 1.1M
20260501T12Z_MSC_CAPS_WindDir_IsbL-0500_RLatLon0.03_PT024H.grib2 2026-05-01 18:18 1.2M
20260501T12Z_MSC_CAPS_WindDir_IsbL-0550_RLatLon0.03_PT024H.grib2 2026-05-01 18:18 1.2M
20260501T12Z_MSC_CAPS_WindDir_IsbL-0600_RLatLon0.03_PT024H.grib2 2026-05-01 18:18 1.2M
20260501T12Z_MSC_CAPS_WindDir_IsbL-0650_RLatLon0.03_PT024H.grib2 2026-05-01 18:18 1.3M
20260501T12Z_MSC_CAPS_WindDir_IsbL-0700_RLatLon0.03_PT024H.grib2 2026-05-01 18:18 1.4M
20260501T12Z_MSC_CAPS_WindDir_IsbL-0750_RLatLon0.03_PT024H.grib2 2026-05-01 18:18 1.5M
20260501T12Z_MSC_CAPS_WindDir_IsbL-0800_RLatLon0.03_PT024H.grib2 2026-05-01 18:18 1.6M
20260501T12Z_MSC_CAPS_WindDir_IsbL-0850_RLatLon0.03_PT024H.grib2 2026-05-01 18:18 1.7M
20260501T12Z_MSC_CAPS_WindDir_IsbL-0875_RLatLon0.03_PT024H.grib2 2026-05-01 18:18 1.8M
20260501T12Z_MSC_CAPS_WindDir_IsbL-0900_RLatLon0.03_PT024H.grib2 2026-05-01 18:18 1.8M
20260501T12Z_MSC_CAPS_WindDir_IsbL-0925_RLatLon0.03_PT024H.grib2 2026-05-01 18:18 1.9M
20260501T12Z_MSC_CAPS_WindDir_IsbL-0950_RLatLon0.03_PT024H.grib2 2026-05-01 18:18 2.0M
20260501T12Z_MSC_CAPS_WindDir_IsbL-0970_RLatLon0.03_PT024H.grib2 2026-05-01 18:18 2.1M
20260501T12Z_MSC_CAPS_WindDir_IsbL-0985_RLatLon0.03_PT024H.grib2 2026-05-01 18:18 2.1M
20260501T12Z_MSC_CAPS_WindDir_IsbL-1000_RLatLon0.03_PT024H.grib2 2026-05-01 18:18 2.2M
20260501T12Z_MSC_CAPS_WindDir_IsbL-1015_RLatLon0.03_PT024H.grib2 2026-05-01 18:18 2.3M
20260501T12Z_MSC_CAPS_WindGust-Max_AGL-10m_RLatLon0.03_PT024H.grib2 2026-05-01 18:18 2.4M
20260501T12Z_MSC_CAPS_WindGust-Min_AGL-10m_RLatLon0.03_PT024H.grib2 2026-05-01 18:18 2.3M
20260501T12Z_MSC_CAPS_WindGust_AGL-10m_RLatLon0.03_PT024H.grib2 2026-05-01 18:18 2.5M
20260501T12Z_MSC_CAPS_WindSpeed_AGL-10m_RLatLon0.03_PT024H.grib2 2026-05-01 18:18 2.1M
20260501T12Z_MSC_CAPS_WindSpeed_AGL-120m_RLatLon0.03_PT024H.grib2 2026-05-01 18:18 1.2M
20260501T12Z_MSC_CAPS_WindSpeed_AGL-40m_RLatLon0.03_PT024H.grib2 2026-05-01 18:18 1.2M
20260501T12Z_MSC_CAPS_WindSpeed_AGL-80m_RLatLon0.03_PT024H.grib2 2026-05-01 18:18 1.2M
20260501T12Z_MSC_CAPS_WindSpeed_IsbL-0050_RLatLon0.03_PT024H.grib2 2026-05-01 18:18 922K
20260501T12Z_MSC_CAPS_WindSpeed_IsbL-0100_RLatLon0.03_PT024H.grib2 2026-05-01 18:18 1.0M
20260501T12Z_MSC_CAPS_WindSpeed_IsbL-0150_RLatLon0.03_PT024H.grib2 2026-05-01 18:18 1.0M
20260501T12Z_MSC_CAPS_WindSpeed_IsbL-0175_RLatLon0.03_PT024H.grib2 2026-05-01 18:18 1.2M
20260501T12Z_MSC_CAPS_WindSpeed_IsbL-0200_RLatLon0.03_PT024H.grib2 2026-05-01 18:18 945K
20260501T12Z_MSC_CAPS_WindSpeed_IsbL-0225_RLatLon0.03_PT024H.grib2 2026-05-01 18:18 956K
20260501T12Z_MSC_CAPS_WindSpeed_IsbL-0250_RLatLon0.03_PT024H.grib2 2026-05-01 18:18 970K
20260501T12Z_MSC_CAPS_WindSpeed_IsbL-0275_RLatLon0.03_PT024H.grib2 2026-05-01 18:18 1.0M
20260501T12Z_MSC_CAPS_WindSpeed_IsbL-0300_RLatLon0.03_PT024H.grib2 2026-05-01 18:18 1.0M
20260501T12Z_MSC_CAPS_WindSpeed_IsbL-0350_RLatLon0.03_PT024H.grib2 2026-05-01 18:18 1.0M
20260501T12Z_MSC_CAPS_WindSpeed_IsbL-0400_RLatLon0.03_PT024H.grib2 2026-05-01 18:18 1.0M
20260501T12Z_MSC_CAPS_WindSpeed_IsbL-0450_RLatLon0.03_PT024H.grib2 2026-05-01 18:18 1.0M
20260501T12Z_MSC_CAPS_WindSpeed_IsbL-0500_RLatLon0.03_PT024H.grib2 2026-05-01 18:18 1.4M
20260501T12Z_MSC_CAPS_WindSpeed_IsbL-0550_RLatLon0.03_PT024H.grib2 2026-05-01 18:18 1.3M
20260501T12Z_MSC_CAPS_WindSpeed_IsbL-0600_RLatLon0.03_PT024H.grib2 2026-05-01 18:18 1.4M
20260501T12Z_MSC_CAPS_WindSpeed_IsbL-0650_RLatLon0.03_PT024H.grib2 2026-05-01 18:18 1.4M
20260501T12Z_MSC_CAPS_WindSpeed_IsbL-0700_RLatLon0.03_PT024H.grib2 2026-05-01 18:18 1.5M
20260501T12Z_MSC_CAPS_WindSpeed_IsbL-0750_RLatLon0.03_PT024H.grib2 2026-05-01 18:18 1.6M
20260501T12Z_MSC_CAPS_WindSpeed_IsbL-0800_RLatLon0.03_PT024H.grib2 2026-05-01 18:18 1.6M
20260501T12Z_MSC_CAPS_WindSpeed_IsbL-0850_RLatLon0.03_PT024H.grib2 2026-05-01 18:18 1.7M
20260501T12Z_MSC_CAPS_WindSpeed_IsbL-0875_RLatLon0.03_PT024H.grib2 2026-05-01 18:18 1.7M
20260501T12Z_MSC_CAPS_WindSpeed_IsbL-0900_RLatLon0.03_PT024H.grib2 2026-05-01 18:18 1.8M
20260501T12Z_MSC_CAPS_WindSpeed_IsbL-0925_RLatLon0.03_PT024H.grib2 2026-05-01 18:18 1.8M
20260501T12Z_MSC_CAPS_WindSpeed_IsbL-0950_RLatLon0.03_PT024H.grib2 2026-05-01 18:18 1.9M
20260501T12Z_MSC_CAPS_WindSpeed_IsbL-0970_RLatLon0.03_PT024H.grib2 2026-05-01 18:18 1.9M
20260501T12Z_MSC_CAPS_WindSpeed_IsbL-0985_RLatLon0.03_PT024H.grib2 2026-05-01 18:18 2.0M
20260501T12Z_MSC_CAPS_WindSpeed_IsbL-1000_RLatLon0.03_PT024H.grib2 2026-05-01 18:18 2.0M
20260501T12Z_MSC_CAPS_WindSpeed_IsbL-1015_RLatLon0.03_PT024H.grib2 2026-05-01 18:18 2.1M
20260501T12Z_MSC_CAPS_WindU_AGL-10m_RLatLon0.03_PT024H.grib2 2026-05-01 18:18 2.0M
20260501T12Z_MSC_CAPS_WindU_AGL-120m_RLatLon0.03_PT024H.grib2 2026-05-01 18:18 1.2M
20260501T12Z_MSC_CAPS_WindU_AGL-40m_RLatLon0.03_PT024H.grib2 2026-05-01 18:18 1.2M
20260501T12Z_MSC_CAPS_WindU_AGL-80m_RLatLon0.03_PT024H.grib2 2026-05-01 18:18 1.2M
20260501T12Z_MSC_CAPS_WindU_IsbL-0050_RLatLon0.03_PT024H.grib2 2026-05-01 18:18 764K
20260501T12Z_MSC_CAPS_WindU_IsbL-0100_RLatLon0.03_PT024H.grib2 2026-05-01 18:18 820K
20260501T12Z_MSC_CAPS_WindU_IsbL-0150_RLatLon0.03_PT024H.grib2 2026-05-01 18:18 726K
20260501T12Z_MSC_CAPS_WindU_IsbL-0175_RLatLon0.03_PT024H.grib2 2026-05-01 18:18 860K
20260501T12Z_MSC_CAPS_WindU_IsbL-0200_RLatLon0.03_PT024H.grib2 2026-05-01 18:18 874K
20260501T12Z_MSC_CAPS_WindU_IsbL-0225_RLatLon0.03_PT024H.grib2 2026-05-01 18:18 891K
20260501T12Z_MSC_CAPS_WindU_IsbL-0250_RLatLon0.03_PT024H.grib2 2026-05-01 18:18 695K
20260501T12Z_MSC_CAPS_WindU_IsbL-0275_RLatLon0.03_PT024H.grib2 2026-05-01 18:18 705K
20260501T12Z_MSC_CAPS_WindU_IsbL-0300_RLatLon0.03_PT024H.grib2 2026-05-01 18:18 712K
20260501T12Z_MSC_CAPS_WindU_IsbL-0350_RLatLon0.03_PT024H.grib2 2026-05-01 18:18 724K
20260501T12Z_MSC_CAPS_WindU_IsbL-0400_RLatLon0.03_PT024H.grib2 2026-05-01 18:18 727K
20260501T12Z_MSC_CAPS_WindU_IsbL-0450_RLatLon0.03_PT024H.grib2 2026-05-01 18:18 963K
20260501T12Z_MSC_CAPS_WindU_IsbL-0500_RLatLon0.03_PT024H.grib2 2026-05-01 18:18 1.0M
20260501T12Z_MSC_CAPS_WindU_IsbL-0550_RLatLon0.03_PT024H.grib2 2026-05-01 18:18 1.0M
20260501T12Z_MSC_CAPS_WindU_IsbL-0600_RLatLon0.03_PT024H.grib2 2026-05-01 18:18 933K
20260501T12Z_MSC_CAPS_WindU_IsbL-0650_RLatLon0.03_PT024H.grib2 2026-05-01 18:18 964K
20260501T12Z_MSC_CAPS_WindU_IsbL-0700_RLatLon0.03_PT024H.grib2 2026-05-01 18:18 1.0M
20260501T12Z_MSC_CAPS_WindU_IsbL-0750_RLatLon0.03_PT024H.grib2 2026-05-01 18:18 1.0M
20260501T12Z_MSC_CAPS_WindU_IsbL-0800_RLatLon0.03_PT024H.grib2 2026-05-01 18:18 1.4M
20260501T12Z_MSC_CAPS_WindU_IsbL-0850_RLatLon0.03_PT024H.grib2 2026-05-01 18:18 1.5M
20260501T12Z_MSC_CAPS_WindU_IsbL-0875_RLatLon0.03_PT024H.grib2 2026-05-01 18:18 1.2M
20260501T12Z_MSC_CAPS_WindU_IsbL-0900_RLatLon0.03_PT024H.grib2 2026-05-01 18:18 1.3M
20260501T12Z_MSC_CAPS_WindU_IsbL-0925_RLatLon0.03_PT024H.grib2 2026-05-01 18:18 1.3M
20260501T12Z_MSC_CAPS_WindU_IsbL-0950_RLatLon0.03_PT024H.grib2 2026-05-01 18:18 1.4M
20260501T12Z_MSC_CAPS_WindU_IsbL-0970_RLatLon0.03_PT024H.grib2 2026-05-01 18:18 1.4M
20260501T12Z_MSC_CAPS_WindU_IsbL-0985_RLatLon0.03_PT024H.grib2 2026-05-01 18:18 1.8M
20260501T12Z_MSC_CAPS_WindU_IsbL-1000_RLatLon0.03_PT024H.grib2 2026-05-01 18:18 1.8M
20260501T12Z_MSC_CAPS_WindU_IsbL-1015_RLatLon0.03_PT024H.grib2 2026-05-01 18:18 2.0M
20260501T12Z_MSC_CAPS_WindV_AGL-10m_RLatLon0.03_PT024H.grib2 2026-05-01 18:18 2.0M
20260501T12Z_MSC_CAPS_WindV_AGL-120m_RLatLon0.03_PT024H.grib2 2026-05-01 18:18 905K
20260501T12Z_MSC_CAPS_WindV_AGL-40m_RLatLon0.03_PT024H.grib2 2026-05-01 18:18 1.2M
20260501T12Z_MSC_CAPS_WindV_AGL-80m_RLatLon0.03_PT024H.grib2 2026-05-01 18:18 1.2M
20260501T12Z_MSC_CAPS_WindV_IsbL-0050_RLatLon0.03_PT024H.grib2 2026-05-01 18:18 937K
20260501T12Z_MSC_CAPS_WindV_IsbL-0100_RLatLon0.03_PT024H.grib2 2026-05-01 18:18 1.0M
20260501T12Z_MSC_CAPS_WindV_IsbL-0150_RLatLon0.03_PT024H.grib2 2026-05-01 18:18 726K
20260501T12Z_MSC_CAPS_WindV_IsbL-0175_RLatLon0.03_PT024H.grib2 2026-05-01 18:18 863K
20260501T12Z_MSC_CAPS_WindV_IsbL-0200_RLatLon0.03_PT024H.grib2 2026-05-01 18:18 878K
20260501T12Z_MSC_CAPS_WindV_IsbL-0225_RLatLon0.03_PT024H.grib2 2026-05-01 18:18 894K
20260501T12Z_MSC_CAPS_WindV_IsbL-0250_RLatLon0.03_PT024H.grib2 2026-05-01 18:18 910K
20260501T12Z_MSC_CAPS_WindV_IsbL-0275_RLatLon0.03_PT024H.grib2 2026-05-01 18:18 705K
20260501T12Z_MSC_CAPS_WindV_IsbL-0300_RLatLon0.03_PT024H.grib2 2026-05-01 18:18 713K
20260501T12Z_MSC_CAPS_WindV_IsbL-0350_RLatLon0.03_PT024H.grib2 2026-05-01 18:18 936K
20260501T12Z_MSC_CAPS_WindV_IsbL-0400_RLatLon0.03_PT024H.grib2 2026-05-01 18:18 944K
20260501T12Z_MSC_CAPS_WindV_IsbL-0450_RLatLon0.03_PT024H.grib2 2026-05-01 18:18 964K
20260501T12Z_MSC_CAPS_WindV_IsbL-0500_RLatLon0.03_PT024H.grib2 2026-05-01 18:18 1.0M
20260501T12Z_MSC_CAPS_WindV_IsbL-0550_RLatLon0.03_PT024H.grib2 2026-05-01 18:18 907K
20260501T12Z_MSC_CAPS_WindV_IsbL-0600_RLatLon0.03_PT024H.grib2 2026-05-01 18:18 931K
20260501T12Z_MSC_CAPS_WindV_IsbL-0650_RLatLon0.03_PT024H.grib2 2026-05-01 18:18 961K
20260501T12Z_MSC_CAPS_WindV_IsbL-0700_RLatLon0.03_PT024H.grib2 2026-05-01 18:18 1.0M
20260501T12Z_MSC_CAPS_WindV_IsbL-0750_RLatLon0.03_PT024H.grib2 2026-05-01 18:18 1.0M
20260501T12Z_MSC_CAPS_WindV_IsbL-0800_RLatLon0.03_PT024H.grib2 2026-05-01 18:18 1.1M
20260501T12Z_MSC_CAPS_WindV_IsbL-0850_RLatLon0.03_PT024H.grib2 2026-05-01 18:18 1.2M
20260501T12Z_MSC_CAPS_WindV_IsbL-0875_RLatLon0.03_PT024H.grib2 2026-05-01 18:18 1.2M
20260501T12Z_MSC_CAPS_WindV_IsbL-0900_RLatLon0.03_PT024H.grib2 2026-05-01 18:18 1.3M
20260501T12Z_MSC_CAPS_WindV_IsbL-0925_RLatLon0.03_PT024H.grib2 2026-05-01 18:18 1.3M
20260501T12Z_MSC_CAPS_WindV_IsbL-0950_RLatLon0.03_PT024H.grib2 2026-05-01 18:18 1.3M
20260501T12Z_MSC_CAPS_WindV_IsbL-0970_RLatLon0.03_PT024H.grib2 2026-05-01 18:18 1.4M
20260501T12Z_MSC_CAPS_WindV_IsbL-0985_RLatLon0.03_PT024H.grib2 2026-05-01 18:18 1.8M
20260501T12Z_MSC_CAPS_WindV_IsbL-1000_RLatLon0.03_PT024H.grib2 2026-05-01 18:18 1.8M
20260501T12Z_MSC_CAPS_WindV_IsbL-1015_RLatLon0.03_PT024H.grib2 2026-05-01 18:18 1.9M